Location: *
(51.8167°N, 12.5000°E)
Time: 00:00:23
(UTC+00:00)

SPOT 3 Rocket - Pass Details

Date: 16 September 2019
Orbit: 780 x 794 km, 98.8° (Epoch: 19 October)

Event Time Altitude Azimuth Distance (km) Brightness Sun altitude
Rises 17:52:24 0° 139° (SE) 3,257 6.3 -5.3°
Reaches altitude 10° 17:54:49 10° 132° (SE) 2,332 5.5 -5.7°
Maximum altitude 17:59:36 41° 64° (ENE) 1,130 4.1 -6.4°
Drops below altitude 10° 18:04:24 10° 356° (N) 2,348 6.3 -7.1°
Sets 18:06:50 0° 349° (N) 3,281 7.1 -7.5°
